Temperature
22 21 21 21 21 22 23 23 24 24 24 24 24 24 23 22 21 19 18 18 18 18 17 17 18 17 17 17 17 17 18 18 17 17 17 17 17 17 17 17 17 17 17 17 17 18 17 18 18
21 21 21 22 22 22 23 23 23 23 24 24 24 24 23 21 20 19 18 18 18 17 17 17 17 17 17 17 17 17 17 17 17 17 17 17 17 17 17 17 17 17 17 17 17 17 17 17 18
21 21 22 23 23 23 23 23 23 24 24 24 24 22 21 20 19 18 18 18 18 17 17 18 17 17 17 17 17 17 17 17 17 17 17 17 17 17 17 17 17 17 17 17 17 17 17 17 18
21 22 23 23 23 24 24 23 24 24 24 24 23 22 20 19 19 18 18 18 18 17 17 17 17 17 17 17 17 17 17 17 17 17 17 17 17 17 17 17 17 17 17 17 17 17 17 17 17
22 23 23 23 23 24 24 24 24 24 24 24 23 21 19 19 19 18 18 18 18 17 17 17 17 17 17 17 17 17 17 17 17 17 17 17 17 17 17 17 17 17 17 17 17 17 17 17 17
23 24 23 23 23 24 25 24 24 24 23 23 22 21 19 19 19 18 18 18 18 17 17 17 17 17 17 17 17 17 17 17 17 17 17 17 17 17 17 17 17 17 17 17 17 17 17 17 17
23 23 23 23 23 24 24 24 24 24 23 23 23 21 19 19 18 18 18 18 18 18 17 17 17 17 17 17 17 17 17 17 17 17 17 17 16 17 17 17 17 17 17 17 17 17 16 16 16
23 23 23 23 23 23 24 24 24 24 23 23 22 21 19 19 18 18 18 18 18 18 18 17 17 17 17 17 17 17 17 17 17 17 16 16 16 16 16 16 16 16 16 16 16 16 16 16 16
24 23 22 23 23 23 24 24 23 23 23 22 22 21 19 18 18 18 18 18 18 18 18 17 17 17 17 17 17 17 17 16 16 16 16 16 16 16 16 16 16 16 16 16 16 16 16 16 16
24 22 23 24 24 24 24 24 23 23 23 22 21 20 19 19 19 19 18 18 18 18 18 17 17 17 17 16 17 17 17 16 16 16 16 16 16 16 16 16 16 16 16 16 16 16 16 16 16
24 23 23 24 24 24 24 23 23 23 22 21 20 19 19 19 19 19 18 18 18 18 18 17 17 17 17 16 16 16 16 16 16 16 16 16 16 16 16 16 16 16 15 16 16 16 16 16 16
24 24 24 24 24 23 23 23 23 22 22 21 20 20 19 19 19 19 18 18 18 18 18 17 17 17 17 17 16 16 16 16 16 16 16 16 16 16 16 15 15 15 15 15 15 15 15 15 15
24 24 24 23 23 23 23 23 22 22 21 21 20 20 19 19 19 19 18 18 18 18 17 17 17 17 17 17 16 16 16 16 16 16 16 16 16 16 16 15 15 15 15 15 15 15 15 15 15
24 24 23 23 23 23 23 22 22 22 21 21 20 20 19 19 19 19 18 18 18 18 17 17 17 17 17 17 16 16 16 16 16 16 16 16 16 16 15 15 15 15 15 15 15 15 15 15 15
24 24 23 24 24 23 23 22 22 22 21 21 20 20 19 19 19 19 19 18 18 18 17 17 17 17 17 16 16 16 16 16 16 16 16 16 16 15 15 15 15 15 15 15 15 15 15 15 15
24 24 22 23 24 23 22 21 22 22 21 21 21 20 19 19 19 19 18 18 18 18 17 17 17 17 17 16 16 16 16 16 16 15 15 15 15 15 15 15 15 15 15 15 15 15 15 15 15
24 23 23 23 24 24 23 22 22 22 22 21 21 20 19 19 19 19 18 18 18 18 17 17 17 17 16 16 16 16 16 15 15 15 15 15 15 15 15 15 15 15 15 15 15 15 15 14 14
23 24 24 23 24 24 23 22 22 22 22 22 21 20 19 19 19 18 18 18 17 17 17 17 17 16 16 16 16 15 15 15 15 15 15 15 15 15 15 15 15 15 15 14 14 14 14 14 14
25 24 24 24 24 24 23 23 23 22 22 22 21 20 20 19 19 18 18 17 17 17 17 16 16 16 16 16 15 15 15 15 15 15 15 15 15 15 14 14 14 14 14 14 14 14 14 14 14
24 24 24 24 24 24 23 23 23 23 22 22 21 21 20 19 19 18 18 17 17 17 17 16 16 16 15 15 15 15 15 14 14 14 14 14 14 14 14 14 14 14 14 14 14 14 13 13 13
24 24 24 23 23 24 23 22 23 23 22 22 21 21 20 19 19 18 18 17 17 17 16 16 16 15 15 15 15 14 14 14 14 14 14 14 14 14 14 14 13 13 13 13 13 13 13 13 13
23 24 24 23 22 22 23 21 22 22 22 21 21 20 20 19 19 18 17 17 17 16 16 16 16 15 15 15 14 14 14 14 14 14 13 13 13 13 13 13 13 13 13 13 13 13 13 12 12
24 24 24 23 23 22 23 22 22 23 21 21 21 20 20 19 18 18 17 17 16 16 16 16 15 15 15 14 14 14 14 14 13 13 13 13 13 13 12 13 13 13 12 12 12 12 12 12 12
24 24 24 23 22 21 23 22 22 22 22 21 21 20 19 19 18 17 17 16 16 16 15 15 15 15 14 14 14 14 14 13 13 13 13 13 12 12 12 12 12 12 12 12 12 12 12 11 11
24 22 21 21 21 21 23 22 22 22 23 22 21 20 19 18 18 17 16 16 16 15 15 15 15 14 14 14 14 14 13 13 13 13 13 12 12 12 12 12 12 12 11 11 11 11 11 11 11
23 23 21 20 21 22 23 22 21 22 22 22 21 20 19 18 17 17 16 16 15 15 15 15 14 14 14 14 14 13 13 13 13 12 12 12 12 12 11 11 11 11 11 11 11 11 11 11 11
23 22 23 22 22 22 22 22 21 21 21 21 20 19 19 18 17 17 16 16 15 15 14 14 14 14 14 13 13 13 13 13 12 12 12 12 11 11 11 11 11 11 11 10 10 10 10 10 10
23 23 22 21 20 20 21 21 20 20 20 20 20 19 18 18 17 16 16 15 15 14 14 14 14 14 13 13 13 13 13 13 12 12 12 11 11 11 11 11 10 10 10 10 10 10 10 10 10
22 22 22 21 21 20 20 20 21 21 21 20 20 19 18 18 17 16 16 15 15 14 14 14 13 13 13 13 13 13 12 12 12 12 12 11 11 11 11 10 10 10 10 10 10 10 10 9 9
22 22 21 20 20 21 20 19 22 21 21 20 20 19 18 17 17 16 16 15 14 14 14 14 13 13 13 13 12 12 12 12 12 11 11 11 11 11 10 10 10 10 10 10 10 9 9 9 9
Wind_Speed
7 9 6 2 2 1 2 5 6 5 5 7 8 8 12 12 9 8 3 6 8 9 10 10 10 10 10 10 10 10 9 10 10 10 11 11 11 11 11 11 10 10 10 9 9 9 8 8 7
8 6 4 3 2 1 3 5 7 7 6 4 7 10 12 11 10 7 4 5 7 9 10 10 10 10 11 11 10 10 9 9 10 10 10 10 11 11 11 11 11 10 10 10 9 9 9 8 7
9 7 3 2 1 2 4 7 8 8 6 5 7 10 8 7 8 5 4 5 8 10 12 10 10 10 11 10 10 10 9 10 10 10 10 10 11 11 11 11 11 11 10 10 9 9 9 9 8
5 3 3 0 3 6 6 7 7 6 5 6 7 8 8 7 5 6 6 7 9 10 11 10 10 10 10 11 10 10 9 10 10 11 10 10 10 11 11 11 11 11 11 10 10 10 10 9 8
4 3 2 2 4 5 6 6 5 6 4 6 9 9 8 8 9 7 6 8 8 9 9 10 10 10 10 11 11 10 10 10 10 11 10 10 10 11 12 12 11 11 11 10 10 10 10 9 9
3 3 1 2 4 5 5 4 5 6 6 6 9 9 6 7 7 6 6 7 7 8 9 9 9 10 11 11 11 12 11 10 10 10 10 9 10 11 11 11 11 11 11 11 11 10 10 9 9
3 2 1 3 4 4 4 4 4 5 6 5 5 7 6 6 6 5 6 7 6 7 8 8 10 11 11 11 11 11 11 10 10 9 8 9 9 10 11 11 11 11 10 10 10 9 9 8 8
3 2 1 2 3 4 5 4 4 6 6 5 5 6 5 7 6 6 7 6 6 6 7 6 9 10 9 9 9 10 9 9 9 8 8 8 9 10 10 9 9 10 10 9 8 8 7 6 6
3 1 2 2 2 4 6 5 5 5 6 7 8 9 10 9 7 7 6 5 5 6 5 5 6 7 8 8 9 8 8 7 7 6 6 5 5 8 8 10 9 9 8 7 6 5 4 4 3
1 2 3 4 3 5 5 5 4 4 6 7 9 11 11 9 7 6 6 6 5 5 5 5 5 6 6 6 7 6 6 6 5 6 6 4 5 7 8 8 7 6 6 5 4 4 3 3 2
2 2 3 4 5 5 5 4 3 4 4 5 8 10 9 8 6 5 6 6 5 5 4 5 5 5 5 4 4 4 4 4 4 6 7 5 6 6 6 5 4 4 4 3 3 3 3 3 4
4 3 3 3 4 4 4 3 4 4 5 7 9 9 8 7 6 5 5 6 5 5 4 4 5 5 5 4 4 3 3 3 4 4 7 6 4 4 3 3 3 4 4 4 4 3 5 6 6
4 3 4 5 5 4 4 3 3 4 6 8 9 9 7 6 5 5 5 5 5 6 5 4 4 4 5 4 3 4 3 4 5 4 6 7 3 3 3 3 4 3 4 3 3 4 4 5 6
5 4 4 3 4 3 4 3 2 5 7 8 8 8 6 5 6 5 5 4 5 5 5 4 4 4 4 3 3 3 4 4 5 4 5 6 4 3 3 3 3 3 4 3 3 4 3 4 4
6 5 5 4 5 4 4 2 3 6 8 8 8 8 6 5 5 5 4 4 5 5 5 4 4 4 4 4 4 4 4 5 4 4 4 6 5 4 4 3 2 3 5 5 5 5 4 4 4
7 6 5 4 5 5 4 3 5 6 8 7 7 7 7 5 5 5 5 5 5 5 5 4 5 5 5 4 4 4 4 4 4 4 5 5 6 6 5 2 2 4 5 3 3 3 3 4 4
6 6 6 6 5 5 5 4 7 7 8 7 7 8 8 6 4 4 5 5 4 4 5 5 5 5 5 4 5 4 4 4 4 5 5 6 7 7 5 3 3 5 4 3 3 3 3 3 3
4 4 3 3 4 6 5 4 7 8 8 7 7 7 8 7 6 5 5 5 5 4 5 5 5 4 5 3 3 3 4 3 4 4 5 6 7 7 6 4 4 5 4 4 4 4 3 2 2
3 3 3 2 3 4 6 6 7 8 7 6 6 7 7 7 6 6 5 5 5 4 5 5 4 4 4 3 2 3 2 2 3 4 6 7 7 6 5 4 4 4 3 3 3 3 3 2 2
5 6 4 2 2 4 5 6 7 8 9 7 7 7 8 7 6 7 6 5 4 4 4 4 4 4 4 3 2 2 3 3 3 3 5 6 6 6 5 4 3 3 3 3 4 3 2 2 2
6 6 4 3 2 6 6 7 8 8 7 6 5 4 6 7 7 7 6 5 4 4 4 3 3 4 4 3 3 3 3 2 3 2 2 4 5 6 5 5 4 3 3 3 3 4 3 2 3
6 4 5 5 6 5 7 5 6 8 8 7 6 4 5 7 7 7 6 5 4 4 4 3 4 4 3 3 3 3 3 2 1 2 2 2 4 5 5 5 4 3 3 3 3 3 2 2 2
5 6 7 8 8 8 8 6 4 9 8 8 7 6 5 6 7 7 7 6 4 3 3 3 3 3 3 3 3 3 3 2 2 2 3 3 3 3 4 4 3 3 2 2 2 2 3 2 2
6 8 9 9 8 9 7 6 2 5 6 7 7 7 6 6 6 6 6 6 4 3 3 3 3 3 3 3 3 4 3 3 3 2 2 2 2 2 3 4 3 3 2 2 2 2 2 2 2
6 6 4 4 5 5 3 4 1 5 5 6 7 7 7 7 6 6 6 5 4 3 3 3 3 3 3 3 3 3 4 3 3 3 2 2 1 1 2 2 2 2 2 2 2 2 1 2 2
6 6 4 4 5 4 3 2 4 6 6 6 6 7 7 7 7 6 6 6 5 4 3 3 3 3 3 3 2 2 3 2 2 3 3 2 2 2 1 2 2 2 2 2 2 2 2 2 2
5 5 7 7 10 8 3 3 5 5 6 6 6 6 6 6 6 6 6 5 5 4 3 3 3 2 2 2 3 3 2 2 2 3 3 2 2 2 2 2 1 2 2 2 2 1 1 2 2
6 5 5 5 5 5 3 1 3 5 5 5 6 7 6 6 6 5 5 5 4 4 3 2 3 3 2 2 2 2 3 3 2 2 3 2 2 2 2 1 1 1 1 2 2 1 1 1 1
4 5 5 5 5 4 4 1 4 4 4 4 4 5 5 5 6 5 5 4 4 3 3 2 3 2 2 2 2 2 2 3 3 2 2 2 2 2 2 2 1 1 1 1 1 1 1 1 2
3 5 6 5 6 6 5 0 4 4 4 4 4 5 4 4 4 4 5 4 3 3 3 3 3 3 2 2 3 2 2 3 3 2 2 2 2 1 2 2 1 1 0 1 1 0 1 1 2
Wind_Direction
251 239 236 240 249 200 62 70 75 63 57 45 44 57 67 51 52 92 112 85 90 94 92 78 68 68 66 64 65 65 65 64 62 61 63 65 65 68 66 66 65 68 67 64 62 64 65 65 63
265 257 253 235 253 111 73 75 71 67 73 69 60 61 70 65 69 92 85 80 92 92 88 78 73 73 69 68 68 67 66 68 65 65 67 67 66 67 66 65 65 67 65 60 59 60 62 62 60
262 259 261 257 8 62 78 81 82 80 67 66 72 60 58 69 76 92 111 104 89 86 88 86 81 77 73 73 71 70 69 70 69 69 70 69 68 66 64 64 65 64 63 60 58 58 58 58 56
258 249 244 165 59 64 87 97 100 96 79 68 80 74 69 62 79 104 115 101 91 89 92 93 86 80 76 77 74 72 74 75 75 73 71 70 71 68 68 67 65 63 62 61 61 60 59 58 53
241 251 211 118 82 78 78 83 92 96 85 73 83 86 77 70 89 101 100 95 96 99 100 102 95 89 82 80 77 74 77 78 77 75 72 73 73 72 69 68 64 64 62 62 61 61 61 57 50
256 241 210 115 101 94 85 75 84 97 94 83 93 97 90 96 94 98 93 92 96 105 105 104 104 101 92 85 81 77 78 80 79 76 75 78 80 77 73 71 66 64 61 61 62 63 63 57 48
272 289 176 116 112 102 87 73 73 81 84 73 87 96 109 107 107 111 101 96 95 99 106 111 120 112 103 95 89 86 82 84 83 81 79 80 82 82 78 73 71 69 65 61 61 63 63 59 51
288 302 134 119 118 99 88 84 66 72 74 64 75 101 119 126 128 121 109 105 100 91 97 108 115 123 121 113 102 98 94 91 89 85 83 83 81 82 81 80 79 76 72 66 64 63 62 59 52
270 284 28 66 89 107 108 105 91 76 92 73 63 85 117 129 133 125 115 109 95 88 89 95 101 110 117 119 116 115 110 105 99 95 82 85 91 93 84 83 85 81 78 71 59 52 60 58 51
172 47 39 58 83 102 110 108 114 122 100 88 85 94 117 128 129 129 124 117 109 105 102 100 100 99 102 99 113 119 108 103 99 100 87 75 73 79 83 87 83 83 80 74 50 30 32 36 64
98 97 72 70 80 92 104 99 92 106 94 106 114 119 126 129 130 128 116 111 110 107 96 100 100 98 99 101 99 92 98 94 73 77 89 77 75 79 81 83 73 76 78 60 45 36 24 33 57
105 87 88 90 91 99 103 100 86 66 84 104 117 127 134 138 137 130 120 118 113 101 94 89 93 100 95 90 95 89 83 89 74 56 80 76 64 65 65 69 53 49 45 36 32 37 36 40 38
113 106 100 94 92 105 108 95 94 98 97 109 122 129 133 136 136 128 123 121 122 116 103 90 94 100 96 87 86 88 72 66 78 66 71 80 73 74 70 63 55 42 41 40 32 40 43 38 39
117 120 123 129 137 148 133 135 142 129 126 129 133 133 136 139 133 125 123 117 111 112 113 99 100 94 98 97 90 87 89 70 60 48 62 80 79 77 75 67 56 40 33 36 38 44 46 48 46
154 166 169 177 182 170 152 151 160 147 142 141 143 140 142 141 135 130 129 125 119 116 118 120 115 96 92 85 78 79 73 70 65 43 43 68 72 70 72 69 55 44 37 38 38 41 45 43 43
204 202 195 194 197 189 195 175 148 157 153 150 153 145 145 143 140 137 136 123 118 118 114 114 109 101 92 95 85 81 76 73 65 46 38 51 65 69 58 54 51 51 43 37 44 39 38 43 33
224 226 197 195 193 194 215 171 163 170 167 168 166 154 149 145 139 127 124 111 105 107 107 101 92 97 92 96 91 78 76 73 64 48 42 43 48 60 65 54 49 50 48 33 36 48 48 49 33
245 259 228 196 191 205 211 192 172 175 180 179 168 154 152 153 152 142 124 114 112 106 105 106 97 94 95 91 89 82 69 67 65 57 47 49 51 49 50 60 58 53 46 28 26 30 43 52 31
289 275 268 222 195 233 223 206 185 175 184 186 172 164 159 157 155 144 137 127 125 121 112 110 110 99 96 93 89 86 78 68 59 56 45 42 50 51 50 48 56 55 54 36 29 32 35 39 40
277 274 260 203 196 251 247 224 190 182 191 189 181 170 162 155 149 142 141 137 140 131 113 110 112 103 103 97 107 108 90 78 74 59 51 40 43 46 48 47 55 55 56 41 34 41 34 14 31
259 280 280 271 253 255 253 238 203 180 179 171 176 166 159 159 156 147 145 143 139 130 128 133 118 107 102 102 90 92 82 78 75 74 59 42 45 52 51 53 53 59 60 50 44 44 44 10 358
271 298 299 278 264 248 241 253 210 176 175 179 179 173 167 158 153 145 146 137 135 133 138 138 126 122 121 125 116 115 113 114 118 106 96 70 52 53 49 54 60 56 54 58 46 47 45 36 359
296 301 284 270 265 266 246 253 204 168 171 174 170 168 157 149 147 143 141 133 134 132 131 139 137 133 126 123 134 131 121 128 114 92 88 80 55 57 50 51 67 66 60 61 43 42 41 41 26
284 279 266 257 257 255 244 244 209 168 169 163 159 157 149 150 145 140 131 128 135 137 135 134 128 126 132 145 152 139 130 125 111 101 101 96 72 39 48 48 53 56 55 51 35 41 29 18 12
265 277 272 249 233 248 208 222 127 123 141 151 153 147 147 150 145 138 133 133 138 135 135 140 144 153 156 159 150 149 141 149 148 139 133 122 107 68 62 52 52 51 47 52 36 34 15 14 19
269 266 281 292 288 288 229 198 107 104 116 120 126 131 135 145 148 145 146 148 149 145 146 150 149 153 158 164 165 148 144 149 145 146 138 142 133 127 108 63 67 58 51 45 36 23 5 16 24
274 270 276 280 281 281 246 142 119 112 119 129 129 127 133 143 148 151 149 145 144 149 160 164 153 152 157 170 170 149 138 138 147 150 134 131 131 139 110 87 80 67 65 58 50 35 11 11 10
267 289 292 281 288 284 272 191 149 144 132 141 149 145 146 148 150 147 146 149 153 156 169 165 157 169 168 149 157 144 136 144 148 134 125 131 153 129 137 146 124 110 80 67 68 19 359 19 340
245 259 267 274 269 277 291 38 78 124 133 141 140 138 143 145 148 151 151 149 151 158 171 175 171 172 158 153 155 157 156 150 143 130 131 145 163 156 158 152 147 115 106 102 93 23 343 355 356
287 276 276 280 289 291 287 119 76 77 70 88 100 111 118 130 137 144 145 143 144 155 171 177 176 174 170 165 160 161 154 151 153 141 144 147 168 180 158 151 156 150 120 121 140 255 21 5 349
Height
1484 1484 1485 1487 1488 1491 1493 1488 1485 1486 1487 1488 1488 1488 1492 1497 1502 1513 1513 1511 1511 1510 1510 1509 1509 1509 1509 1508 1508 1508 1508 1508 1508 1508 1508 1508 1508 1508 1509 1509 1509 1509 1509 1509 1509 1509 1509 1509 1509
1484 1486 1488 1488 1490 1498 1496 1488 1488 1489 1490 1490 1491 1492 1495 1502 1506 1510 1511 1512 1511 1511 1511 1510 1510 1510 1509 1509 1509 1509 1509 1509 1509 1509 1510 1510 1509 1510 1510 1510 1510 1510 1510 1510 1510 1510 1510 1509 1509
1485 1486 1488 1486 1489 1495 1496 1489 1489 1490 1492 1491 1493 1496 1501 1506 1509 1511 1512 1512 1512 1512 1511 1511 1511 1510 1510 1510 1510 1510 1510 1510 1510 1511 1511 1511 1511 1511 1511 1511 1511 1511 1511 1511 1511 1510 1510 1509 1509
1487 1488 1487 1489 1493 1489 1489 1489 1490 1491 1493 1493 1495 1500 1505 1509 1510 1512 1513 1513 1513 1513 1512 1512 1511 1511 1511 1511 1511 1511 1511 1511 1512 1512 1512 1512 1512 1512 1512 1512 1512 1512 1512 1512 1511 1511 1510 1509 1508
1488 1487 1489 1492 1492 1488 1488 1489 1490 1492 1494 1495 1497 1503 1508 1511 1511 1512 1513 1514 1514 1513 1512 1512 1511 1511 1512 1512 1513 1513 1513 1513 1513 1513 1513 1513 1513 1513 1514 1513 1513 1513 1513 1513 1512 1512 1511 1510 1508
1488 1486 1492 1496 1493 1489 1489 1491 1492 1493 1496 1497 1499 1504 1510 1512 1513 1513 1514 1515 1515 1514 1513 1511 1510 1511 1513 1513 1514 1514 1514 1514 1514 1514 1514 1515 1515 1515 1515 1515 1515 1514 1514 1514 1514 1513 1512 1511 1509
1488 1487 1491 1493 1494 1492 1491 1492 1493 1494 1496 1498 1500 1505 1511 1513 1514 1514 1515 1516 1516 1516 1514 1512 1510 1512 1514 1515 1515 1516 1516 1516 1516 1516 1516 1516 1516 1516 1516 1516 1516 1516 1516 1515 1515 1515 1514 1513 1512
1487 1487 1489 1491 1493 1494 1493 1494 1495 1497 1499 1501 1501 1505 1510 1513 1514 1515 1516 1517 1517 1517 1516 1515 1514 1515 1516 1517 1517 1518 1518 1518 1518 1518 1518 1518 1518 1518 1518 1517 1517 1517 1517 1517 1517 1516 1516 1515 1514
1487 1490 1495 1493 1493 1493 1493 1495 1497 1499 1500 1502 1504 1506 1509 1512 1514 1516 1517 1518 1519 1519 1519 1518 1518 1518 1519 1519 1519 1519 1520 1520 1520 1520 1520 1520 1520 1520 1519 1519 1519 1519 1519 1519 1518 1518 1518 1517 1517
1487 1494 1494 1490 1490 1492 1494 1496 1498 1500 1501 1504 1507 1509 1511 1513 1515 1516 1517 1518 1519 1520 1521 1521 1521 1521 1521 1522 1521 1521 1522 1522 1522 1522 1522 1522 1522 1522 1521 1521 1521 1521 1520 1520 1520 1520 1519 1519 1519
1487 1492 1491 1491 1492 1493 1495 1497 1499 1500 1503 1505 1507 1510 1512 1514 1516 1517 1518 1519 1520 1521 1522 1522 1522 1523 1523 1523 1523 1523 1523 1523 1523 1524 1523 1523 1523 1523 1523 1522 1522 1522 1522 1522 1522 1522 1521 1521 1521
1489 1490 1491 1493 1494 1495 1497 1499 1500 1502 1505 1506 1508 1510 1513 1515 1517 1518 1519 1520 1521 1522 1522 1523 1524 1524 1524 1524 1524 1525 1525 1525 1525 1525 1525 1525 1525 1524 1524 1524 1524 1524 1523 1523 1523 1523 1523 1523 1523
1490 1492 1493 1495 1496 1497 1498 1500 1501 1503 1505 1507 1509 1511 1513 1515 1517 1518 1519 1520 1521 1522 1523 1524 1524 1524 1525 1525 1525 1526 1526 1526 1526 1526 1526 1526 1526 1525 1525 1525 1525 1525 1524 1525 1524 1524 1524 1524 1524
1491 1493 1494 1495 1496 1497 1499 1500 1502 1504 1505 1507 1509 1511 1514 1515 1517 1518 1519 1520 1521 1522 1523 1524 1524 1525 1525 1525 1526 1527 1527 1527 1527 1527 1527 1527 1527 1526 1526 1526 1526 1526 1525 1525 1525 1525 1525 1525 1525
1491 1493 1494 1494 1495 1497 1499 1502 1501 1503 1505 1507 1509 1511 1513 1515 1517 1518 1519 1520 1521 1522 1523 1524 1525 1525 1526 1526 1527 1527 1527 1528 1527 1528 1528 1528 1528 1527 1527 1527 1527 1526 1526 1526 1526 1526 1526 1526 1526
1489 1492 1498 1494 1493 1495 1500 1506 1502 1503 1504 1507 1509 1511 1513 1515 1517 1518 1519 1520 1521 1522 1523 1524 1525 1526 1526 1526 1527 1527 1528 1528 1528 1528 1528 1528 1528 1528 1528 1527 1527 1527 1526 1526 1527 1526 1526 1526 1526
1490 1494 1496 1494 1490 1493 1497 1501 1500 1502 1503 1505 1507 1509 1512 1514 1516 1518 1519 1520 1521 1522 1523 1524 1525 1525 1526 1527 1527 1528 1528 1528 1528 1528 1529 1528 1528 1528 1528 1528 1528 1527 1527 1527 1527 1527 1527 1527 1527
1494 1491 1491 1493 1490 1491 1495 1497 1497 1499 1501 1503 1505 1507 1510 1512 1515 1517 1518 1519 1520 1521 1522 1523 1524 1525 1526 1527 1527 1528 1528 1529 1529 1529 1529 1529 1529 1528 1529 1528 1528 1528 1527 1527 1527 1527 1527 1527 1527
1485 1488 1491 1490 1488 1491 1492 1493 1494 1496 1499 1501 1503 1505 1508 1511 1514 1515 1517 1518 1520 1521 1522 1523 1524 1525 1526 1526 1527 1527 1528 1528 1528 1528 1529 1529 1529 1528 1528 1528 1528 1528 1527 1527 1528 1528 1527 1527 1528
1485 1489 1489 1487 1486 1489 1491 1491 1490 1493 1496 1498 1500 1503 1506 1509 1512 1514 1516 1518 1519 1520 1522 1523 1524 1524 1525 1525 1526 1527 1527 1528 1528 1528 1528 1528 1528 1528 1528 1528 1528 1528 1527 1527 1527 1527 1527 1528 1528
1486 1488 1488 1489 1487 1487 1492 1494 1490 1490 1493 1496 1499 1501 1504 1506 1509 1512 1514 1516 1518 1519 1521 1522 1523 1523 1524 1525 1526 1526 1526 1527 1527 1527 1527 1528 1528 1528 1528 1528 1527 1527 1527 1527 1527 1527 1527 1528 1528
1490 1484 1485 1487 1492 1494 1492 1502 1490 1487 1491 1494 1497 1500 1502 1505 1507 1510 1512 1515 1517 1518 1519 1521 1522 1522 1523 1524 1525 1525 1526 1526 1526 1526 1527 1527 1527 1527 1527 1527 1527 1527 1527 1527 1527 1527 1527 1527 1528
1486 1483 1484 1486 1489 1492 1488 1495 1490 1484 1490 1492 1495 1498 1501 1504 1506 1509 1511 1513 1515 1517 1518 1519 1520 1521 1522 1523 1524 1524 1525 1525 1526 1526 1526 1526 1526 1526 1527 1527 1527 1527 1526 1526 1526 1526 1527 1527 1527
1483 1484 1484 1484 1488 1499 1487 1492 1494 1486 1486 1489 1492 1496 1499 1502 1505 1508 1510 1512 1514 1515 1516 1517 1519 1520 1520 1521 1522 1523 1523 1524 1524 1525 1525 1526 1526 1526 1526 1526 1526 1526 1526 1526 1526 1526 1526 1526 1526
1484 1491 1500 1501 1502 1497 1480 1487 1490 1481 1481 1485 1490 1494 1497 1501 1504 1506 1508 1510 1512 1514 1515 1516 1517 1518 1519 1520 1521 1521 1522 1522 1523 1524 1524 1524 1524 1524 1525 1525 1525 1525 1525 1526 1525 1525 1525 1525 1526
1485 1489 1504 1512 1506 1494 1481 1488 1488 1481 1483 1486 1490 1493 1496 1500 1503 1505 1507 1509 1511 1512 1513 1514 1515 1517 1518 1518 1519 1520 1521 1521 1522 1522 1523 1523 1523 1523 1524 1524 1524 1524 1524 1524 1524 1524 1525 1525 1525
1487 1488 1485 1494 1492 1494 1487 1485 1486 1483 1485 1488 1491 1494 1496 1499 1502 1504 1506 1508 1509 1511 1512 1513 1514 1515 1516 1516 1517 1518 1519 1519 1520 1521 1521 1522 1522 1522 1523 1523 1523 1523 1523 1523 1523 1523 1524 1524 1524
1484 1485 1489 1495 1503 1504 1493 1489 1493 1489 1488 1489 1490 1493 1496 1499 1501 1503 1505 1506 1508 1509 1511 1512 1512 1513 1514 1514 1515 1516 1517 1517 1518 1519 1519 1520 1520 1521 1521 1522 1522 1522 1522 1522 1522 1522 1522 1522 1523
1486 1488 1488 1490 1491 1502 1506 1501 1484 1485 1485 1487 1489 1492 1495 1497 1500 1502 1504 1505 1507 1508 1509 1510 1511 1511 1512 1512 1513 1514 1515 1515 1516 1517 1517 1518 1519 1519 1520 1520 1521 1521 1521 1521 1521 1521 1521 1521 1521
1485 1487 1489 1499 1497 1491 1498 1502 1482 1483 1485 1487 1489 1492 1494 1497 1499 1500 1502 1504 1505 1506 1508 1508 1509 1510 1510 1510 1511 1512 1513 1513 1514 1515 1515 1516 1517 1517 1518 1519 1519 1519 1519 1519 1520 1520 1520 1520 1520